Location: Newark
(42.8481°N, 0.4872°E)
Time: 08:00:04
(UTC+00:00)

Transit 2A Rocket - Pass Details

Date: 30 October 2020
Orbit: 588 x 914 km, 66.7° (Epoch: 29 November)

Event Time Altitude Azimuth Distance (km) Brightness Sun altitude
Rises 16:20:47 0° 337° (NNW) 3,326 8.3 4.6°
Reaches altitude 10° 16:23:58 10° 354° (N) 2,327 7.4 4.1°
Maximum altitude 16:27:48 20° 40° (NE) 1,668 6.3 3.4°
Drops below altitude 10° 16:31:24 10° 87° (E) 2,159 6.8 2.8°
Sets 16:34:13 0° 105° (ESE) 3,012 7.6 2.3°
